Meteo pe oră la Bolshie Pavlovichi

Astăzi, 19 Mai, Miercuri

Timp Temperatura Precipitaţii Vânt Presiune Umiditate
00:00 +15°C° 0 mm 1 m/s 736 mmHg 95%
01:00 +15°C° 0 mm 1 m/s 736 mmHg 95%
02:00 +14°C° 0 mm 1 m/s 736 mmHg 95%
03:00 +14°C° 0.2 mm 1 m/s 736 mmHg 96%
04:00 +14°C° 0.2 mm 2 m/s 736 mmHg 96%
05:00 +14°C° 0.2 mm 2 m/s 736 mmHg 97%
06:00 +14°C° 0.7 mm 2 m/s 736 mmHg 97%
07:00 +14°C° 0.7 mm 2 m/s 737 mmHg 97%
08:00 +15°C° 0.7 mm 2 m/s 737 mmHg 97%
09:00 +14°C° 0.3 mm 3 m/s 737 mmHg 93%
10:00 +16°C° 0.3 mm 3 m/s 737 mmHg 90%
11:00 +17°C° 0.3 mm 4 m/s 738 mmHg 86%
12:00 +17°C° 0.5 mm 4 m/s 738 mmHg 87%
13:00 +17°C° 0.5 mm 4 m/s 738 mmHg 88%
14:00 +15°C° 0.5 mm 4 m/s 739 mmHg 89%
15:00 +15°C° 0.7 mm 4 m/s 739 mmHg 90%
16:00 +14°C° 0.7 mm 3 m/s 739 mmHg 90%
17:00 +14°C° 0.7 mm 3 m/s 739 mmHg 91%
18:00 +13°C° 0.1 mm 3 m/s 740 mmHg 92%
19:00 +12°C° 0.1 mm 3 m/s 740 mmHg 93%
20:00 +11°C° 0.1 mm 3 m/s 741 mmHg 94%
21:00 +11°C° 0 mm 3 m/s 741 mmHg 95%
22:00 +10°C° 0 mm 3 m/s 741 mmHg 95%
23:00 +10°C° 0 mm 3 m/s 741 mmHg 96%

Mâine, 20 Mai, Joi

Timp Temperatura Precipitaţii Vânt Presiune Umiditate
00:00 +10°C° 0 mm 3 m/s 741 mmHg 96%
01:00 +10°C° 0 mm 4 m/s 741 mmHg 96%
02:00 +10°C° 0 mm 4 m/s 741 mmHg 95%
03:00 +8°C° 0 mm 4 m/s 741 mmHg 95%
04:00 +8°C° 0 mm 4 m/s 741 mmHg 95%
05:00 +8°C° 0 mm 4 m/s 741 mmHg 94%
06:00 +8°C° 0 mm 5 m/s 741 mmHg 92%
07:00 +9°C° 0 mm 5 m/s 741 mmHg 90%
08:00 +9°C° 0 mm 6 m/s 741 mmHg 88%
09:00 +9°C° 0.1 mm 6 m/s 741 mmHg 85%
10:00 +10°C° 0.1 mm 6 m/s 741 mmHg 82%
11:00 +10°C° 0.1 mm 6 m/s 741 mmHg 79%
12:00 +10°C° 0.8 mm 6 m/s 741 mmHg 79%
13:00 +12°C° 0.8 mm 5 m/s 741 mmHg 79%
14:00 +12°C° 0.8 mm 5 m/s 742 mmHg 79%
15:00 +12°C° 0.1 mm 5 m/s 742 mmHg 78%
16:00 +13°C° 0.1 mm 4 m/s 742 mmHg 77%
17:00 +13°C° 0.1 mm 4 m/s 742 mmHg 76%
18:00 +12°C° 0 mm 3 m/s 743 mmHg 80%
19:00 +11°C° 0 mm 3 m/s 743 mmHg 83%
20:00 +10°C° 0 mm 2 m/s 744 mmHg 87%
21:00 +10°C° 0 mm 2 m/s 744 mmHg 89%
22:00 +9°C° 0 mm 2 m/s 745 mmHg 91%
23:00 +8°C° 0 mm 2 m/s 745 mmHg 93%

Poimâine, 21 Mai, Vineri

Timp Temperatura Precipitaţii Vânt Presiune Umiditate
00:00 +8°C° 0 mm 2 m/s 745 mmHg 93%
01:00 +7°C° 0 mm 2 m/s 746 mmHg 94%
02:00 +7°C° 0 mm 2 m/s 746 mmHg 95%
03:00 +7°C° 0 mm 2 m/s 746 mmHg 95%
04:00 +7°C° 0 mm 2 m/s 747 mmHg 95%
05:00 +7°C° 0 mm 2 m/s 747 mmHg 95%
06:00 +8°C° 0 mm 3 m/s 748 mmHg 88%
07:00 +10°C° 0 mm 3 m/s 748 mmHg 81%
08:00 +12°C° 0 mm 3 m/s 748 mmHg 74%
09:00 +12°C° 0 mm 4 m/s 748 mmHg 67%
10:00 +13°C° 0 mm 4 m/s 748 mmHg 60%
11:00 +14°C° 0 mm 4 m/s 749 mmHg 52%
12:00 +15°C° 0 mm 4 m/s 749 mmHg 51%
13:00 +15°C° 0 mm 4 m/s 749 mmHg 49%
14:00 +17°C° 0 mm 4 m/s 749 mmHg 48%
15:00 +17°C° 0 mm 4 m/s 749 mmHg 51%
16:00 +17°C° 0 mm 3 m/s 749 mmHg 54%
17:00 +16°C° 0 mm 3 m/s 749 mmHg 57%
18:00 +15°C° 0 mm 2 m/s 749 mmHg 62%
19:00 +13°C° 0 mm 2 m/s 749 mmHg 67%
20:00 +11°C° 0 mm 1 m/s 749 mmHg 72%
21:00 +10°C° 0 mm 1 m/s 749 mmHg 74%
22:00 +10°C° 0 mm 1 m/s 749 mmHg 76%
23:00 +9°C° 0 mm 1 m/s 749 mmHg 77%

22 Mai, Sâmbătă

Timp Temperatura Precipitaţii Vânt Presiune Umiditate
00:00 +9°C° 0 mm 1 m/s 749 mmHg 79%
01:00 +8°C° 0 mm 1 m/s 749 mmHg 80%
02:00 +7°C° 0 mm 2 m/s 749 mmHg 81%
03:00 +7°C° 0 mm 2 m/s 749 mmHg 82%
04:00 +7°C° 0 mm 2 m/s 749 mmHg 82%
05:00 +7°C° 0 mm 2 m/s 749 mmHg 83%
06:00 +9°C° 0 mm 2 m/s 749 mmHg 78%
07:00 +11°C° 0 mm 3 m/s 749 mmHg 73%
08:00 +13°C° 0 mm 3 m/s 749 mmHg 68%
09:00 +14°C° 0 mm 3 m/s 749 mmHg 64%
10:00 +15°C° 0 mm 4 m/s 749 mmHg 61%
11:00 +18°C° 0 mm 4 m/s 749 mmHg 57%
12:00 +18°C° 0 mm 4 m/s 749 mmHg 55%
13:00 +19°C° 0 mm 4 m/s 749 mmHg 54%
14:00 +19°C° 0 mm 4 m/s 748 mmHg 52%
15:00 +19°C° 0 mm 4 m/s 748 mmHg 56%
16:00 +19°C° 0 mm 3 m/s 748 mmHg 60%
17:00 +19°C° 0 mm 3 m/s 747 mmHg 64%
18:00 +17°C° 0 mm 3 m/s 747 mmHg 70%
19:00 +16°C° 0 mm 3 m/s 747 mmHg 76%
20:00 +13°C° 0 mm 3 m/s 747 mmHg 83%
21:00 +12°C° 0 mm 3 m/s 747 mmHg 86%
22:00 +12°C° 0 mm 3 m/s 747 mmHg 89%
23:00 +11°C° 0 mm 3 m/s 746 mmHg 92%

23 Mai, Duminică

Timp Temperatura Precipitaţii Vânt Presiune Umiditate
00:00 +11°C° 0 mm 3 m/s 746 mmHg 93%
01:00 +11°C° 0 mm 3 m/s 746 mmHg 94%
02:00 +11°C° 0 mm 4 m/s 745 mmHg 95%
03:00 +11°C° 0 mm 4 m/s 745 mmHg 94%
04:00 +11°C° 0 mm 4 m/s 744 mmHg 93%
05:00 +11°C° 0 mm 4 m/s 744 mmHg 92%
06:00 +12°C° 0 mm 5 m/s 743 mmHg 89%
07:00 +13°C° 0 mm 5 m/s 743 mmHg 85%
08:00 +14°C° 0 mm 6 m/s 742 mmHg 82%
09:00 +15°C° 0 mm 6 m/s 742 mmHg 81%
10:00 +16°C° 0 mm 6 m/s 742 mmHg 79%
11:00 +16°C° 0 mm 6 m/s 741 mmHg 78%
12:00 +16°C° 0.8 mm 6 m/s 741 mmHg 81%
13:00 +16°C° 0.8 mm 6 m/s 741 mmHg 84%
14:00 +16°C° 0.8 mm 6 m/s 741 mmHg 87%
15:00 +15°C° 0.3 mm 6 m/s 741 mmHg 88%
16:00 +14°C° 0.3 mm 5 m/s 742 mmHg 88%
17:00 +13°C° 0.3 mm 5 m/s 742 mmHg 89%
18:00 +13°C° 0 mm 4 m/s 742 mmHg 90%
19:00 +12°C° 0 mm 4 m/s 743 mmHg 91%
20:00 +11°C° 0 mm 3 m/s 743 mmHg 92%
21:00 +11°C° 0 mm 3 m/s 744 mmHg 92%
22:00 +11°C° 0 mm 3 m/s 744 mmHg 93%
23:00 +10°C° 0 mm 3 m/s 744 mmHg 93%

24 Mai, Luni

Timp Temperatura Precipitaţii Vânt Presiune Umiditate
00:00 +9°C° 0 mm 3 m/s 745 mmHg 94%
01:00 +9°C° 0 mm 2 m/s 745 mmHg 95%
02:00 +8°C° 0 mm 2 m/s 745 mmHg 96%
03:00 +8°C° 0 mm 2 m/s 746 mmHg 95%
04:00 +8°C° 0 mm 2 m/s 746 mmHg 95%
05:00 +9°C° 0 mm 1 m/s 746 mmHg 94%
06:00 +9°C° 0 mm 2 m/s 746 mmHg 88%
07:00 +12°C° 0 mm 2 m/s 747 mmHg 81%
08:00 +13°C° 0 mm 2 m/s 747 mmHg 74%
09:00 +13°C° 0 mm 3 m/s 747 mmHg 68%
10:00 +14°C° 0 mm 3 m/s 747 mmHg 62%
11:00 +16°C° 0 mm 3 m/s 747 mmHg 56%
12:00 +14°C° 0.6 mm 3 m/s 747 mmHg 65%
13:00 +12°C° 0.6 mm 3 m/s 748 mmHg 74%
14:00 +11°C° 0.6 mm 3 m/s 748 mmHg 82%
15:00 +12°C° 0.1 mm 3 m/s 748 mmHg 78%
16:00 +12°C° 0.1 mm 3 m/s 748 mmHg 75%
17:00 +13°C° 0.1 mm 4 m/s 748 mmHg 71%
18:00 +12°C° 0.4 mm 3 m/s 748 mmHg 77%
19:00 +10°C° 0.4 mm 3 m/s 748 mmHg 83%
20:00 +9°C° 0.4 mm 3 m/s 749 mmHg 90%
21:00 +8°C° 0 mm 3 m/s 749 mmHg 91%
22:00 +7°C° 0 mm 3 m/s 749 mmHg 92%
23:00 +7°C° 0 mm 3 m/s 749 mmHg 93%
Arată mai mult

Formular de consimțământ

Meteoprog și furnizorii noștri de servicii pot stoca și accesa date personale, precum cookies, identificatori de dispozitiv sau alte tehnologii similare pe dispozitivul dumneavoastră și procesa astfel de date pentru a personaliza conținutul și reclamele, dar și pentru a oferi caracteristici de social media și pentru a analiza traficul.

  • Stocarea și/sau accesarea informațiilor pe dispozitivul dumneavoastră

    Cookies, identificatori de dispozitiv sau alte informații pot fi stocate sau accesate pe dispozitiv în scopurile indicate mai sus.

  • Reclame și conținut personalizat, evaluarea reclamelor și a conținutului, informații despre audiențe și dezvoltarea produselor

    Reclamele și conținutul pot fi personalizate pe baza unui profil. Pot fi adăugate date suplimentare pentru a personaliza mai bine reclamele și conținutul. Performanța reclamelor și conținutului poate fi măsurată. Pot fi obținute informații despre utilizatorii care au văzut reclamele și conținutul. Aceste date pot fi utilizate pentru a dezvolta sau îmbunătăți experiența utilizatorilor, sistemele și software-ul.

Dând clic pe ‘Sunt de acord’, permiteți utilizarea cookie-urilor menționate, a identificatorilor de dispozitiv, balizelor web sau altor tehnologii similare. Setările pot fi modificate din browser-ul dispozitivului dumneavoastră.

În anumite scopuri, interesele legitime pot prima asupra consimțământului. Puteți citi mai multe informații în acest sens în Politica privind Confidențialitatea Datelor și Cookie.